TimeAEST,TemperatureF,Dew PointF,Humidity,Sea Level PressureIn,VisibilityMPH,Wind Direction,Wind SpeedMPH,Gust SpeedMPH,PrecipitationIn,Events,Conditions,WindDirDegrees,DateUTC
12:00 AM,56,54,90,30.30,,SW,2.3,,,,,220,2013-07-14 14:00:00
12:00 AM,57.2,53.6,88,30.27,6.2,SW,2.3,-,N/A,,Scattered Clouds,220,2013-07-14 14:00:00
12:30 AM,55.4,53.6,94,30.27,6.2,South,3.5,-,N/A,,Unknown,170,2013-07-14 14:30:00
1:00 AM,55.4,53.6,94,30.27,6.2,South,2.3,-,N/A,,Unknown,180,2013-07-14 15:00:00
1:30 AM,55.4,53.6,94,30.27,6.2,SW,3.5,-,N/A,,Scattered Clouds,220,2013-07-14 15:30:00
2:00 AM,53.6,51.8,94,30.27,6.2,Calm,Calm,-,N/A,,Overcast,0,2013-07-14 16:00:00
2:30 AM,55.4,53.6,94,30.27,6.2,WSW,3.5,-,N/A,,Overcast,250,2013-07-14 16:30:00
3:00 AM,56,54,90,30.27,,SSW,8.9,,,,Overcast,210,2013-07-14 17:00:00
3:00 AM,55.4,53.6,94,30.24,6.2,SSW,4.6,-,N/A,,Overcast,210,2013-07-14 17:00:00
3:30 AM,55.4,53.6,94,30.24,6.2,SW,1.2,-,N/A,,Mostly Cloudy,220,2013-07-14 17:30:00
4:00 AM,57.2,55.4,94,30.27,6.2,SSE,6.9,-,N/A,,Overcast,150,2013-07-14 18:00:00
4:30 AM,57.2,53.6,88,30.27,6.2,East,3.5,-,N/A,,Overcast,90,2013-07-14 18:30:00
5:00 AM,57.2,55.4,94,30.27,6.2,WSW,3.5,-,N/A,,Overcast,250,2013-07-14 19:00:00
5:30 AM,57.2,55.4,94,30.27,6.2,SW,6.9,-,N/A,,Overcast,220,2013-07-14 19:30:00
6:00 AM,58,54,83,30.30,,SW,6.9,,,,,230,2013-07-14 20:00:00
6:00 AM,57.2,53.6,88,30.27,6.2,SW,6.9,-,N/A,,Overcast,230,2013-07-14 20:00:00
6:30 AM,57.2,55.4,94,30.30,6.2,WSW,6.9,-,N/A,,Overcast,240,2013-07-14 20:30:00
7:00 AM,59.0,55.4,88,30.30,6.2,SSW,5.8,-,N/A,,Overcast,210,2013-07-14 21:00:00
7:30 AM,59.0,55.4,88,30.30,6.2,SW,5.8,-,N/A,,Overcast,220,2013-07-14 21:30:00
8:00 AM,59.0,55.4,88,30.30,6.2,NNW,4.6,-,N/A,,Mostly Cloudy,340,2013-07-14 22:00:00
8:30 AM,60.8,55.4,82,30.33,6.2,North,1.2,-,N/A,,Mostly Cloudy,10,2013-07-14 22:30:00
9:00 AM,63,57,74,30.33,,SE,13.4,,,,Overcast,140,2013-07-14 23:00:00
9:00 AM,62.6,57.2,82,30.33,6.2,SE,6.9,-,N/A,,Overcast,130,2013-07-14 23:00:00
9:30 AM,64.4,55.4,73,30.33,6.2,South,8.1,-,N/A,,Mostly Cloudy,170,2013-07-14 23:30:00
10:00 AM,64.4,55.4,73,30.30,6.2,South,9.2,-,N/A,,Overcast,180,2013-07-15 00:00:00
10:30 AM,66.2,57.2,73,30.30,6.2,South,8.1,-,N/A,,Overcast,170,2013-07-15 00:30:00
11:00 AM,68.0,55.4,64,30.30,6.2,ESE,9.2,-,N/A,,Scattered Clouds,120,2013-07-15 01:00:00
11:30 AM,68.0,55.4,64,30.27,6.2,East,10.4,-,N/A,,Unknown,100,2013-07-15 01:30:00
12:00 PM,68,56,58,30.29,,ESE,10.4,,,,,110,2013-07-15 02:00:00
12:00 PM,68.0,57.2,68,30.27,6.2,ESE,10.4,-,N/A,,Scattered Clouds,110,2013-07-15 02:00:00
12:30 PM,68.0,57.2,68,30.27,6.2,East,11.5,-,N/A,,Overcast,100,2013-07-15 02:30:00
1:00 PM,66.2,59.0,78,30.24,6.2,ENE,12.7,-,N/A,,Scattered Clouds,60,2013-07-15 03:00:00
1:30 PM,68.0,57.2,68,30.24,6.2,East,11.5,-,N/A,,Scattered Clouds,100,2013-07-15 03:30:00
2:00 PM,68.0,57.2,68,30.24,6.2,East,9.2,-,N/A,,Scattered Clouds,100,2013-07-15 04:00:00
2:30 PM,66.2,55.4,68,30.24,6.2,ENE,10.4,-,N/A,,Scattered Clouds,60,2013-07-15 04:30:00
3:00 PM,65,58,71,30.25,,ENE,15.7,,,,Overcast,60,2013-07-15 05:00:00
3:00 PM,64.4,57.2,77,30.24,6.2,ENE,8.1,-,N/A,,Overcast,60,2013-07-15 05:00:00
3:30 PM,64.4,57.2,77,30.24,6.2,NE,6.9,-,N/A,,Overcast,50,2013-07-15 05:30:00
4:00 PM,64.4,57.2,77,30.24,6.2,NE,8.1,-,N/A,,Overcast,50,2013-07-15 06:00:00
4:30 PM,64.4,57.2,77,30.24,6.2,NE,8.1,-,N/A,,Overcast,50,2013-07-15 06:30:00
5:00 PM,64.4,57.2,77,30.24,6.2,NNE,11.5,-,N/A,,Overcast,20,2013-07-15 07:00:00
5:38 PM,62.6,57.2,82,30.27,6.2,NNE,12.7,-,N/A,,Mostly Cloudy,30,2013-07-15 07:38:00
6:00 PM,63,58,78,30.28,,NNE,11.5,,,,Overcast,20,2013-07-15 08:00:00
6:00 PM,62.6,57.2,82,30.27,6.2,NNE,11.5,-,N/A,,Overcast,20,2013-07-15 08:00:00
6:04 PM,62.6,57.2,82,30.27,6.2,NNE,11.5,-,N/A,,Overcast,20,2013-07-15 08:04:00
6:30 PM,62.6,57.2,82,30.27,6.2,NNE,10.4,-,N/A,,Overcast,30,2013-07-15 08:30:00
7:00 PM,62.6,57.2,82,30.30,6.2,NNE,11.5,-,N/A,,Overcast,30,2013-07-15 09:00:00
7:30 PM,62.6,57.2,82,30.30,6.2,NE,12.7,-,N/A,,Overcast,40,2013-07-15 09:30:00
8:00 PM,62.6,55.4,77,30.30,6.2,ENE,12.7,-,N/A,,Overcast,60,2013-07-15 10:00:00
8:30 PM,60.8,57.2,88,30.30,6.2,West,6.9,-,N/A,,Overcast,270,2013-07-15 10:30:00
9:00 PM,61,58,85,30.32,,WSW,8.1,,,,Overcast,240,2013-07-15 11:00:00
9:00 PM,60.8,57.2,88,30.30,6.2,WSW,8.1,-,N/A,,Overcast,240,2013-07-15 11:00:00
9:30 PM,60.8,57.2,88,30.30,6.2,West,8.1,-,N/A,,Overcast,260,2013-07-15 11:30:00
10:00 PM,60.8,57.2,88,30.30,6.2,WSW,6.9,-,N/A,,Overcast,250,2013-07-15 12:00:00
10:30 PM,60.8,57.2,88,30.30,6.2,SSW,5.8,-,N/A,,Overcast,200,2013-07-15 12:30:00
11:00 PM,60.8,57.2,88,30.30,6.2,SW,4.6,-,N/A,,Overcast,220,2013-07-15 13:00:00
11:30 PM,59.0,55.4,88,30.30,6.2,SSW,3.5,-,N/A,,Overcast,210,2013-07-15 13:30:00